Regional Weather Roundup
Issued by NWS Grand Forks, ND

Home | Current Version | Previous Version | Graphics & Text | Print | Product List | Glossary On
Versions: 1 2 3 4 5 6 7 8 9 10 11 12 13 14 15 16 17 18 19 20 21 22 23 24 25 26 27 28 29 30 31 32 33 34 35 36 37 38 39 40 41 42 43 44 45 46 47 48 49 50
000
ASUS43 KFGF 020831
RWRFGF
PRAIRIE TO PINES  WEATHER ROUNDUP
NATIONAL WEATHER SERVICE EASTERN NORTH DAKOTA/GRAND FORKS ND
300 AM CDT SUN AUG 02 2015

 **SATELLITE DATA USED TO AUGMENT SKY COVER AT AUTOMATED STATIONS**
 *****  WEATHER ACROSS EASTERN NORTH DAKOTA  *****

CITY           SKY/WX    TMP DP  RH WIND       PRES   REMARKS
GRAND FORKS    MOCLDY    68  60  75 NE6       29.68F
GRAND FRKS AFB PTCLDY    67  60  79 NE5       29.68F
DEVILS LAKE    MOCLDY    64  54  68 N6        29.71R
FARGO          PTCLDY    70  66  87 NE3       29.65S
WAHPETON ARPT  MOSUNNY   66  63  88 CALM      29.65S
$$

 ***** WEATHER ACROSS CENTRAL AND WESTERN NORTH DAKOTA  *****

CITY           SKY/WX    TMP DP  RH WIND       PRES   REMARKS
BISMARCK       CLEAR     67  57  70 NW12G20   29.77R
MINOT          CLEAR     63  57  81 W10       29.81R
JAMESTOWN      CLEAR     68  59  73 W8        29.65S
MINOT AFB      CLEAR     62  60  94 NW9       29.80R
GARRISON         N/A     63  57  81 N12       29.81R
WILLISTON      CLEAR     62  53  72 N9        29.89R
DICKINSON      CLEAR     64  52  64 N9        29.88R
HETTINGER      CLEAR     62  43  49 N7        29.88R
$$

 *****  OTHER AIRPORT OBSERVATIONS IN OUR AREA  *****

CITY           SKY/WX    TMP DP  RH WIND       PRES   REMARKS
WALHALLA       FAIR      61  61 100 MISG      29.69F
GRAFTON AIRPOR FAIR      64  61  88 CALM      29.66F
VALLEY CITY AR FAIR      64  64 100 N8        29.65R
CANDO          FAIR      59  57  94 N6        29.73F
CAVALIER APRT  FAIR      63  59  88 N9        29.66F
GWINNER          N/A     70  70 100 SW12      29.67S
SHEYENNE NWR     N/A     67  66  97 W3        29.95
ROLLA          FAIR      59  57  94 NW15      29.76F
 ***** THE ABOVE OBSERVATIONS ARE NON NWS ARE NOT QUALITY
       CONTROLLED AND MAY MIS-REPORT RAIN FOR SNOW...
$$

  *****  WEATHER ACROSS NORTHERN MINNESOTA  *****

CITY           SKY/WX    TMP DP  RH WIND       PRES   REMARKS
FLAG ISLAND    PTCLDY    68  57  68 N7        29.66S
WARROAD        CLOUDY    61  57  88 CALM      29.68F
ROSEAU         CLOUDY    63  57  82 CALM      29.67F
HALLOCK        CLOUDY    61  59  94 N3        29.65F
THF RVR FALLS  MOCLDY    66  57  72 N6        29.68F
BAUDETTE       MOCLDY    61  58  90 W6        29.68R
WASKISH        CLOUDY    63  61  94 NW5       29.69F
CROOKSTON      PTCLDY    66  61  82 E6        29.68F
STEPHEN NDAWN    N/A     64  61  88 NW5         N/A
GREENBUSH NDAW   N/A    N/A N/A N/A N3          N/A
$$
  *****  WEATHER ACROSS CENTRAL AND WEST MINNESOTA  *****

CITY           SKY/WX    TMP DP  RH WIND       PRES   REMARKS
FOSSTON        MOCLDY    63  59  88 CALM      29.70F
BEMIDJI        CLOUDY    64  59  83 N5        29.70R
PARK RAPIDS    MOCLDY    68  63  84 N5        29.69R
ELBOW LAKE     FAIR      67  65  93 CALM      29.67S
WADENA         PTCLDY    64  63  94 S5        29.65F
DETROIT LAKES  MOCLDY    68  64  88 E5        29.68F
MOORHEAD       PTCLDY    66  64  94 CALM      29.65F
FERGUS FALLS   PTCLDY    70  64  83 S3        29.65S
MORRIS MN      FAIR      66  64  94 SW5       29.65R
STAPLES        PTCLDY    66  64  94 CALM      29.67R
$$
  *****  WEATHER ELSEWHERE ACROSS MINNESOTA  *****

CITY           SKY/WX    TMP DP  RH WIND       PRES   REMARKS
DULUTH         MOCLDY    67  59  75 W7        29.67F
INTRNTL FALLS  CLOUDY    61  59  93 W5        29.66F
ELY            TSTM      61  57  88 W9G31     29.75R
CLOQUET        PTCLDY    66  59  77 NW3       29.68R
WHEATON        PTCLDY    66  63  88 SW8       29.67S
BRAINERD       CLEAR     68  65  90 NW5       29.66F
HIBBING        CLOUDY    68  55  63 NW16      29.71R
ALEXANDRIA     CLEAR     70  64  81 S13       29.66F
SAINT CLOUD    CLEAR     67  64  90 S7        29.68F
MINNEAPOLIS    PTCLDY    75  65  70 SW13      29.71F
$$

  *****  WEATHER ACROSS SOUTH DAKOTA  *****

CITY           SKY/WX    TMP DP  RH WIND       PRES   REMARKS
SIOUX FALLS    CLEAR     70  61  73 SW8       29.78F
BROOKINGS      CLEAR     66  59  77 SW9       29.77S
WATERTOWN      CLEAR     68  63  84 SW12      29.75R
HURON          CLEAR     69  61  75 SW7       29.73F
SISSETON         N/A     66  63  90 W7        29.67R
ABERDEEN       CLEAR     60  57  89 S7        29.70F
MITCHELL       CLEAR     69  61  75 SW9       29.77F
PIERRE           N/A     73  60  63 W14       29.77F
MOBRIDGE       CLEAR     66  51  58 NW8       29.74F
RAPID CITY     CLEAR     66  55  67 NW8       29.91S
$$

  *****  SOME WEATHER IN NEARBY STATES *****

CITY           SKY/WX    TMP DP  RH WIND       PRES   REMARKS
GLASGOW MT     CLEAR     62  51  67 NE7       29.95R
GREAT FALLS MT CLEAR     62  37  39 W7        29.95R
CHEYENNE WY    PTCLDY    59  52  77 W8        30.16F
SCOTTSBLUFF NE CLEAR     69  55  60 CALM      30.01F
OMAHA NE       MOCLDY    73  69  87 S12       29.87F
DES MOINES IA  PTCLDY    73  64  73 SW10      29.87F
DAVENPORT IA   CLEAR     72  70  93 S8        29.89F
CHICAGO IL     PTCLDY    72  66  81 W12       29.87F
EAU CLAIRE WI  MOCLDY    71  66  84 SW7       29.73F
LA CROSSE WI   PTCLDY    74  69  85 SE5       29.76F
$$

  *****  SOME NATIONAL WEATHER *****

CITY           SKY/WX    TMP DP  RH WIND       PRES   REMARKS
LA GUARDIA NY  PTCLDY    76  57  51 NW6       29.86S
RALEIGH NC     PTCLDY    72  60  66 N3        29.93S
ATLANTA GA     CLEAR     76  60  57 N6        29.93S
NEW ORLEANS LA CLEAR     78  68  71 CALM      29.88F
OKLAHOMA CITY  MOCLDY    72  69  90 S3        29.97F
ALBUQUERQUE NM CLOUDY    67  61  81 SE7       30.18F
SALT LAKE CITY PTCLDY    72  43  35 S5        29.98S
LOS ANGELES CA PTCLDY    69  64  84 VRB5      29.91F
BOISE ID       MOCLDY    77  37  23 SE6       29.88S
SEATTLE WA     CLEAR     73  50  44 NE8       29.93R
$$

*** WEATHER ACROSS MANITOBA...SASKATCHEWAN AND ONTARIO ***
                ***ONTARIO***

CITY           SKY/WX    TMP DP  RH WIND       PRES   REMARKS
GERALDTON      PTCLDY    55  54  94 SW7       29.57F
THUNDER BAY    LGT RAIN  61  59  94 W5        29.62F
SIOUX LOOKOUT  PTCLDY    59  57  94 W5        29.63S
TORONTO        PTCLDY    63  54  72 W2        29.82F
BIG TROUT LK   LGT RAIN  50  48  93 NW9G17    29.45
PICKLE LAKE    NOT AVBL
DRYDEN         PTCLDY    57  55  94 W6        29.65R
KENORA         MOCLDY    61  59  94 W6        29.68S
$$
                *** MANITOBA***

CITY           SKY/WX    TMP DP  RH WIND       PRES   REMARKS
BRANDON        PTCLDY    57  55  94 NW7       29.78R
DAUPHIN        PTCLDY    55  54  94 W7        29.78R
ISLAND LAKE    CLOUDY    55  46  71 NW13G22   29.59S
PILOT MOUND      N/A     57  57 100 N6          N/A
THE PAS        CLEAR     61  46  59 NW10      29.77S
THOMPSON       LGT RAIN  52  48  87 NW12G20   29.64F
WINNIPEG       MOCLDY    59  55  88 W7        29.70S
LYNN LAKE      CLOUDY    54  45  71 NW14      29.75S
CHURCHILL      LGT RAIN  46  45  93 N20       29.53S FOG
$$
                ***SASKATCHEWAN***

CITY           SKY/WX    TMP DP  RH WIND       PRES   REMARKS
ESTEVAN        CLEAR     54  52  94 W8        29.87S
KINDERSLEY     PTCLDY    55  52  88 N9        30.01R
LLOYDMINSTER   CLEAR     52  48  87 NW6       30.01S
PRINCE ALBERT  CLEAR     52  50  93 W6        29.92R
REGINA         CLEAR     54  54 100 NW7       29.92R
YORKTON        MOCLDY    57  55  94 NW8       29.84S
N. BATTLEFORD  FOG       48  46  93 CALM      30.01R VSB 1
LA RONGE       CLEAR     52  45  76 NW6       29.89R
SASKATOON      CLEAR     52  50  93 W9        29.97R
SWIFT CURRENT  CLEAR     55  52  88 N7        29.99S
$$
NOTE: THESE ARE AUTOMATED STATIONS WITH LIMITED QUALITY CONTROL
      "FAIR" INDICATES FEW OR NO CLOUDS BELOW 12,000 FEET WITH NO
      SIGNIFICANT WEATHER AND/OR OBSTRUCTIONS TO VISIBILITY.
      SKY/WX - SKY CONDITION AND SIGNIFICANT WEATHER.
      TMP - AIR TEMPERATURE.    DP   - DEWPOINT TEMPERATURE.
      RH  - RELATIVE HUMIDITY.  PRES - PRESSURE.
      HX  - HEAT INDEX.         WCI  - WIND CHILL INDEX.
$



USA.gov is the U.S. government's official web portal to all federal, state and local government web resources and services.